• Em Portugal
  • Lista de países
  • Para 7 dias
  • Temperatura da água
  • Mapas de satélite
  • Mapa do tempo
  • Widgets de tempo
  • user-avatar
    Iniciar Sessão

    Previsão horária em Dhalkuta

    Hoje, 11 Dezembro, Segunda-feira

    Tempo Temperatura Precipitação Vento Pressão Humidade
    00:00 +22°C° 0 mm 1 m/s 753 mmHg 70%
    01:00 +22°C° 0 mm 1 m/s 753 mmHg 71%
    02:00 +22°C° 0 mm 1 m/s 753 mmHg 72%
    03:00 +22°C° 0 mm 1 m/s 752 mmHg 72%
    04:00 +21°C° 0 mm 1 m/s 753 mmHg 73%
    05:00 +21°C° 0 mm 1 m/s 753 mmHg 73%
    06:00 +21°C° 0 mm 1 m/s 753 mmHg 71%
    07:00 +22°C° 0 mm 1 m/s 753 mmHg 66%
    08:00 +24°C° 0 mm 1 m/s 753 mmHg 62%
    09:00 +23°C° 0 mm 0 m/s 753 mmHg 58%
    10:00 +27°C° 0 mm 1 m/s 753 mmHg 53%
    11:00 +28°C° 0 mm 2 m/s 753 mmHg 49%
    12:00 +30°C° 0 mm 3 m/s 753 mmHg 45%
    13:00 +30°C° 0 mm 3 m/s 752 mmHg 44%
    14:00 +30°C° 0 mm 3 m/s 752 mmHg 43%
    15:00 +32°C° 0 mm 4 m/s 751 mmHg 42%
    16:00 +29°C° 0 mm 3 m/s 752 mmHg 47%
    17:00 +27°C° 0 mm 3 m/s 752 mmHg 52%
    18:00 +25°C° 0 mm 2 m/s 752 mmHg 58%
    19:00 +25°C° 0 mm 2 m/s 752 mmHg 60%
    20:00 +24°C° 0 mm 2 m/s 753 mmHg 62%
    21:00 +23°C° 0 mm 2 m/s 753 mmHg 64%
    22:00 +23°C° 0 mm 2 m/s 753 mmHg 65%
    23:00 +23°C° 0 mm 1 m/s 753 mmHg 66%

    Amanhã, 12 Dezembro, Terça-feira

    Tempo Temperatura Precipitação Vento Pressão Humidade
    00:00 +22°C° 0 mm 1 m/s 753 mmHg 67%
    01:00 +22°C° 0 mm 1 m/s 753 mmHg 67%
    02:00 +22°C° 0 mm 1 m/s 753 mmHg 68%
    03:00 +21°C° 0 mm 1 m/s 752 mmHg 68%
    04:00 +21°C° 0 mm 1 m/s 753 mmHg 68%
    05:00 +21°C° 0 mm 1 m/s 753 mmHg 68%
    06:00 +20°C° 0 mm 1 m/s 753 mmHg 68%
    07:00 +22°C° 0 mm 1 m/s 753 mmHg 63%
    08:00 +23°C° 0 mm 1 m/s 754 mmHg 59%
    09:00 +23°C° 0 mm 0 m/s 754 mmHg 54%
    10:00 +26°C° 0 mm 1 m/s 754 mmHg 49%
    11:00 +28°C° 0 mm 2 m/s 754 mmHg 44%
    12:00 +29°C° 0 mm 3 m/s 753 mmHg 40%
    13:00 +30°C° 0 mm 3 m/s 753 mmHg 38%
    14:00 +30°C° 0 mm 4 m/s 752 mmHg 37%
    15:00 +30°C° 0 mm 4 m/s 751 mmHg 35%
    16:00 +28°C° 0 mm 4 m/s 752 mmHg 39%
    17:00 +26°C° 0 mm 3 m/s 752 mmHg 44%
    18:00 +24°C° 0 mm 2 m/s 752 mmHg 48%
    19:00 +23°C° 0 mm 2 m/s 752 mmHg 50%
    20:00 +23°C° 0 mm 2 m/s 753 mmHg 52%
    21:00 +21°C° 0 mm 2 m/s 753 mmHg 54%
    22:00 +20°C° 0 mm 2 m/s 753 mmHg 55%
    23:00 +21°C° 0 mm 1 m/s 753 mmHg 55%

    Depois de amanhã, 13 Dezembro, Quarta-feira

    Tempo Temperatura Precipitação Vento Pressão Humidade
    00:00 +20°C° 0 mm 1 m/s 753 mmHg 56%
    01:00 +20°C° 0 mm 1 m/s 753 mmHg 56%
    02:00 +20°C° 0 mm 1 m/s 753 mmHg 55%
    03:00 +19°C° 0 mm 1 m/s 752 mmHg 55%
    04:00 +19°C° 0 mm 1 m/s 752 mmHg 54%
    05:00 +19°C° 0 mm 1 m/s 752 mmHg 54%
    06:00 +18°C° 0 mm 1 m/s 752 mmHg 53%
    07:00 +20°C° 0 mm 1 m/s 753 mmHg 50%
    08:00 +21°C° 0 mm 1 m/s 754 mmHg 48%
    09:00 +23°C° 0 mm 1 m/s 754 mmHg 45%
    10:00 +25°C° 0 mm 1 m/s 754 mmHg 42%
    11:00 +26°C° 0 mm 2 m/s 754 mmHg 40%
    12:00 +28°C° 0 mm 2 m/s 753 mmHg 37%
    13:00 +28°C° 0 mm 2 m/s 753 mmHg 36%
    14:00 +29°C° 0 mm 2 m/s 752 mmHg 34%
    15:00 +29°C° 0 mm 3 m/s 751 mmHg 33%
    16:00 +27°C° 0 mm 2 m/s 752 mmHg 37%
    17:00 +25°C° 0 mm 2 m/s 752 mmHg 41%
    18:00 +23°C° 0 mm 1 m/s 752 mmHg 45%
    19:00 +23°C° 0 mm 1 m/s 753 mmHg 46%
    20:00 +22°C° 0 mm 1 m/s 754 mmHg 47%
    21:00 +20°C° 0 mm 2 m/s 754 mmHg 49%
    22:00 +21°C° 0 mm 1 m/s 754 mmHg 49%
    23:00 +20°C° 0 mm 1 m/s 754 mmHg 50%

    14 Dezembro, Quinta-feira

    Tempo Temperatura Precipitação Vento Pressão Humidade
    00:00 +20°C° 0 mm 1 m/s 754 mmHg 50%
    01:00 +20°C° 0 mm 1 m/s 754 mmHg 50%
    02:00 +19°C° 0 mm 1 m/s 753 mmHg 51%
    03:00 +19°C° 0 mm 1 m/s 753 mmHg 51%
    04:00 +19°C° 0 mm 1 m/s 753 mmHg 50%
    05:00 +18°C° 0 mm 1 m/s 753 mmHg 50%
    06:00 +17°C° 0 mm 2 m/s 754 mmHg 50%
    07:00 +20°C° 0 mm 1 m/s 754 mmHg 48%
    08:00 +21°C° 0 mm 1 m/s 755 mmHg 45%
    09:00 +23°C° 0 mm 1 m/s 755 mmHg 43%
    10:00 +24°C° 0 mm 2 m/s 755 mmHg 41%
    11:00 +26°C° 0 mm 2 m/s 755 mmHg 40%
    12:00 +27°C° 0 mm 2 m/s 755 mmHg 39%
    13:00 +28°C° 0 mm 2 m/s 754 mmHg 37%
    14:00 +28°C° 0 mm 2 m/s 754 mmHg 35%
    15:00 +28°C° 0 mm 3 m/s 753 mmHg 34%
    16:00 +27°C° 0 mm 2 m/s 753 mmHg 38%
    17:00 +25°C° 0 mm 2 m/s 753 mmHg 42%
    18:00 +23°C° 0 mm 1 m/s 754 mmHg 46%
    19:00 +22°C° 0 mm 1 m/s 754 mmHg 46%
    20:00 +20°C° 0 mm 2 m/s 755 mmHg 47%
    21:00 +20°C° 0 mm 2 m/s 755 mmHg 47%
    22:00 +19°C° 0 mm 2 m/s 755 mmHg 47%
    23:00 +20°C° 0 mm 1 m/s 754 mmHg 46%

    15 Dezembro, Sexta-feira

    Tempo Temperatura Precipitação Vento Pressão Humidade
    00:00 +19°C° 0 mm 1 m/s 754 mmHg 46%
    01:00 +19°C° 0 mm 1 m/s 754 mmHg 45%
    02:00 +18°C° 0 mm 1 m/s 753 mmHg 45%
    03:00 +18°C° 0 mm 1 m/s 753 mmHg 44%
    04:00 +18°C° 0 mm 1 m/s 753 mmHg 44%
    05:00 +16°C° 0 mm 1 m/s 753 mmHg 43%
    06:00 +16°C° 0 mm 1 m/s 753 mmHg 43%
    07:00 +19°C° 0 mm 1 m/s 754 mmHg 42%
    08:00 +20°C° 0 mm 1 m/s 754 mmHg 40%
    09:00 +22°C° 0 mm 1 m/s 755 mmHg 39%
    10:00 +24°C° 0 mm 2 m/s 755 mmHg 38%
    11:00 +25°C° 0 mm 2 m/s 754 mmHg 37%
    12:00 +27°C° 0 mm 2 m/s 754 mmHg 37%
    13:00 +27°C° 0 mm 2 m/s 754 mmHg 35%
    14:00 +28°C° 0 mm 2 m/s 753 mmHg 33%
    15:00 +28°C° 0 mm 2 m/s 753 mmHg 31%
    16:00 +26°C° 0 mm 2 m/s 753 mmHg 34%
    17:00 +24°C° 0 mm 2 m/s 753 mmHg 37%
    18:00 +22°C° 0 mm 1 m/s 754 mmHg 40%
    19:00 +21°C° 0 mm 1 m/s 754 mmHg 43%
    20:00 +21°C° 0 mm 1 m/s 755 mmHg 45%
    21:00 +19°C° 0 mm 2 m/s 755 mmHg 47%
    22:00 +18°C° 0 mm 2 m/s 755 mmHg 49%
    23:00 +19°C° 0 mm 1 m/s 755 mmHg 50%

    16 Dezembro, Sábado

    Tempo Temperatura Precipitação Vento Pressão Humidade
    00:00 +19°C° 0 mm 1 m/s 755 mmHg 52%
    01:00 +18°C° 0 mm 1 m/s 755 mmHg 53%
    02:00 +18°C° 0 mm 1 m/s 755 mmHg 54%
    03:00 +18°C° 0 mm 1 m/s 754 mmHg 55%
    04:00 +16°C° 0 mm 1 m/s 754 mmHg 56%
    05:00 +16°C° 0 mm 1 m/s 754 mmHg 56%
    06:00 +16°C° 0 mm 1 m/s 755 mmHg 56%
    07:00 +18°C° 0 mm 1 m/s 755 mmHg 54%
    08:00 +20°C° 0 mm 1 m/s 756 mmHg 52%
    09:00 +22°C° 0 mm 1 m/s 756 mmHg 50%
    10:00 +23°C° 0 mm 2 m/s 756 mmHg 48%
    11:00 +25°C° 0 mm 2 m/s 755 mmHg 47%
    12:00 +26°C° 0 mm 2 m/s 755 mmHg 45%
    13:00 +26°C° 0 mm 2 m/s 754 mmHg 43%
    14:00 +27°C° 0 mm 2 m/s 754 mmHg 41%
    15:00 +27°C° 0 mm 1 m/s 753 mmHg 39%
    16:00 +25°C° 0 mm 1 m/s 754 mmHg 44%
    17:00 +24°C° 0 mm 1 m/s 754 mmHg 49%
    18:00 +22°C° 0 mm 1 m/s 755 mmHg 53%
    19:00 +21°C° 0 mm 1 m/s 755 mmHg 56%
    20:00 +21°C° 0 mm 1 m/s 756 mmHg 58%
    21:00 +19°C° 0 mm 2 m/s 756 mmHg 60%
    22:00 +19°C° 0 mm 2 m/s 756 mmHg 61%
    23:00 +18°C° 0 mm 2 m/s 756 mmHg 63%
    Mostrar mais